Time,TemperatureF,DewpointF,PressureIn,WindDirection,WindDirectionDegrees,WindSpeedMPH,WindSpeedGustMPH,Humidity,HourlyPrecipIn,Conditions,Clouds,dailyrainin,SoftwareType,DateUTC
2013-07-06 00:53:00,72.0,70.0,-100.00,SW,225,1.0,3.0,91,0.00,,,-99.99,,2013-07-06 04:53:00,
2013-07-06 01:02:00,72.0,70.0,-100.00,South,175,1.0,3.0,91,0.00,,,-99.99,,2013-07-06 05:02:00,
2013-07-06 01:33:00,72.0,70.0,-100.00,SSW,195,0.0,3.0,92,0.00,,,-99.99,,2013-07-06 05:33:00,
2013-07-06 01:42:00,72.0,70.0,-100.00,SW,230,1.0,2.0,92,0.00,,,-99.99,,2013-07-06 05:42:00,
2013-07-06 01:53:00,72.0,70.0,-100.00,SW,235,0.0,2.0,92,0.00,,,-99.99,,2013-07-06 05:53:00,
2013-07-06 02:02:00,72.0,70.0,-100.00,SW,220,0.0,3.0,92,0.00,,,-99.99,,2013-07-06 06:02:00,
2013-07-06 02:12:00,72.0,70.0,-100.00,East,100,0.0,3.0,92,0.00,,,-99.99,,2013-07-06 06:12:00,
2013-07-06 02:22:00,72.0,70.0,-100.00,SSW,210,0.0,2.0,92,0.00,,,-99.99,,2013-07-06 06:22:00,
2013-07-06 02:34:00,72.0,69.0,-100.00,ESE,105,0.0,1.0,92,0.00,,,-99.99,,2013-07-06 06:34:00,
2013-07-06 02:43:00,71.0,69.0,-100.00,SSW,200,1.0,2.0,93,0.00,,,-99.99,,2013-07-06 06:43:00,
2013-07-06 02:53:00,71.0,69.0,-100.00,NE,40,0.0,1.0,93,0.00,,,-99.99,,2013-07-06 06:53:00,
2013-07-06 03:02:00,71.0,69.0,-100.00,SSW,200,0.0,1.0,93,0.00,,,-99.99,,2013-07-06 07:02:00,
2013-07-06 03:12:00,71.0,69.0,-100.00,SW,225,0.0,2.0,93,0.00,,,-99.99,,2013-07-06 07:12:00,
2013-07-06 03:22:00,71.0,69.0,-100.00,SSW,210,0.0,1.0,93,0.00,,,-99.99,,2013-07-06 07:22:00,
2013-07-06 03:33:00,71.0,69.0,-100.00,SW,225,0.0,1.0,93,0.00,,,-99.99,,2013-07-06 07:33:00,
2013-07-06 03:44:00,71.0,69.0,-100.00,WSW,240,0.0,2.0,93,0.00,,,-99.99,,2013-07-06 07:44:00,
2013-07-06 03:52:00,71.0,69.0,-100.00,NNW,345,0.0,2.0,93,0.00,,,-99.99,,2013-07-06 07:52:00,
2013-07-06 04:02:00,71.0,69.0,-100.00,SW,215,0.0,1.0,93,0.00,,,-99.99,,2013-07-06 08:02:00,
2013-07-06 04:12:00,71.0,69.0,-100.00,SW,230,1.0,2.0,93,0.00,,,-99.99,,2013-07-06 08:12:00,
2013-07-06 04:34:00,71.0,69.0,-100.00,WSW,240,0.0,2.0,94,0.00,,,-99.99,,2013-07-06 08:34:00,
2013-07-06 04:43:00,71.0,69.0,-100.00,SW,220,0.0,3.0,94,0.00,,,-99.99,,2013-07-06 08:43:00,
2013-07-06 04:54:00,71.0,69.0,-100.00,West,265,0.0,1.0,94,0.55,,,-99.99,,2013-07-06 08:54:00,
2013-07-06 05:02:00,71.0,69.0,-100.00,SW,230,0.0,3.0,94,0.55,,,-99.99,,2013-07-06 09:02:00,
2013-07-06 05:11:00,70.0,69.0,-100.00,WSW,240,2.0,3.0,94,3.94,,,-99.99,,2013-07-06 09:11:00,
2013-07-06 05:52:00,69.0,67.0,-100.00,South,170,0.0,2.0,94,0.55,,,-99.99,,2013-07-06 09:52:00,
2013-07-06 06:02:00,69.0,67.0,-100.00,East,95,0.0,2.0,94,0.00,,,-99.99,,2013-07-06 10:02:00,
2013-07-06 06:11:00,69.0,67.0,-100.00,South,190,0.0,2.0,94,0.55,,,-99.99,,2013-07-06 10:11:00,
2013-07-06 06:33:00,69.0,67.0,-100.00,NW,305,0.0,2.0,94,2.24,,,-99.99,,2013-07-06 10:33:00,
2013-07-06 06:42:00,68.0,67.0,-100.00,WSW,255,1.0,2.0,94,1.10,,,-99.99,,2013-07-06 10:42:00,
2013-07-06 06:53:00,68.0,67.0,-100.00,WSW,255,1.0,2.0,94,1.10,,,-99.99,,2013-07-06 10:53:00,
2013-07-06 07:33:00,69.0,67.0,-100.00,NE,50,0.0,2.0,94,0.00,,,-99.99,,2013-07-06 11:33:00,
2013-07-06 07:53:00,69.0,67.0,-100.00,NNE,30,0.0,2.0,94,0.00,,,-99.99,,2013-07-06 11:53:00,
2013-07-06 08:01:00,69.0,67.0,-100.00,SSW,205,1.0,2.0,94,0.55,,,-99.99,,2013-07-06 12:01:00,
2013-07-06 08:12:00,69.0,67.0,-100.00,ENE,65,0.0,4.0,94,0.55,,,-99.99,,2013-07-06 12:12:00,
2013-07-06 08:33:00,69.0,67.0,-100.00,NE,45,1.0,4.0,94,1.69,,,-99.99,,2013-07-06 12:33:00,
2013-07-06 08:43:00,69.0,67.0,-100.00,NE,45,1.0,3.0,94,1.69,,,-99.99,,2013-07-06 12:43:00,
2013-07-06 08:52:00,69.0,67.0,-100.00,NE,45,1.0,2.0,94,1.69,,,-99.99,,2013-07-06 12:52:00,
2013-07-06 09:01:00,69.0,68.0,-100.00,NNE,15,0.0,2.0,94,1.69,,,-99.99,,2013-07-06 13:01:00,
2013-07-06 09:12:00,70.0,68.0,-100.00,North,355,0.0,2.0,94,0.55,,,-99.99,,2013-07-06 13:12:00,
2013-07-06 09:22:00,70.0,68.0,-100.00,NNE,15,1.0,3.0,94,1.69,,,-99.99,,2013-07-06 13:22:00,
2013-07-06 09:33:00,70.0,68.0,-100.00,SE,130,0.0,2.0,94,0.55,,,-99.99,,2013-07-06 13:33:00,
2013-07-06 09:43:00,70.0,68.0,-100.00,NNE,30,1.0,3.0,94,1.69,,,-99.99,,2013-07-06 13:43:00,
2013-07-06 09:52:00,70.0,69.0,-100.00,NNE,25,0.0,2.0,94,2.24,,,-99.99,,2013-07-06 13:52:00,
2013-07-06 10:02:00,70.0,69.0,-100.00,SW,225,0.0,3.0,94,2.83,,,-99.99,,2013-07-06 14:02:00,
2013-07-06 10:12:00,70.0,69.0,-100.00,SW,235,1.0,3.0,94,5.67,,,-99.99,,2013-07-06 14:12:00,
2013-07-06 10:22:00,70.0,69.0,-100.00,NE,45,1.0,3.0,94,2.24,,,-99.99,,2013-07-06 14:22:00,
2013-07-06 10:34:00,70.0,69.0,-100.00,SSW,200,1.0,3.0,94,2.24,,,-99.99,,2013-07-06 14:34:00,
2013-07-06 10:42:00,70.0,69.0,-100.00,NE,40,1.0,4.0,94,2.83,,,-99.99,,2013-07-06 14:42:00,
2013-07-06 10:53:00,70.0,69.0,-100.00,NE,40,1.0,4.0,94,2.83,,,-99.99,,2013-07-06 14:53:00,
2013-07-06 11:02:00,70.0,69.0,-100.00,NNE,15,1.0,4.0,94,0.00,,,-99.99,,2013-07-06 15:02:00,
2013-07-06 11:12:00,70.0,69.0,-100.00,NE,55,2.0,4.0,94,0.55,,,-99.99,,2013-07-06 15:12:00,
2013-07-06 11:22:00,71.0,69.0,-100.00,NE,40,1.0,6.0,94,0.00,,,-99.99,,2013-07-06 15:22:00,
2013-07-06 11:33:00,70.0,68.0,-100.00,East,100,2.0,4.0,94,0.00,,,-99.99,,2013-07-06 15:33:00,
2013-07-06 11:43:00,70.0,69.0,-100.00,SE,130,1.0,3.0,94,0.55,,,-99.99,,2013-07-06 15:43:00,
2013-07-06 11:53:00,71.0,69.0,-100.00,WSW,255,1.0,5.0,94,0.00,,,-99.99,,2013-07-06 15:53:00,
2013-07-06 12:15:00,72.0,69.0,-100.00,East,85,1.0,2.0,93,0.00,,,-99.99,,2013-07-06 16:15:00,
2013-07-06 12:26:00,72.0,69.0,-100.00,East,85,1.0,2.0,93,0.00,,,-99.99,,2013-07-06 16:26:00,
2013-07-06 12:45:00,72.0,70.0,-100.00,East,80,1.0,6.0,91,0.00,,,-99.99,,2013-07-06 16:45:00,
2013-07-06 12:54:00,73.0,70.0,-100.00,East,90,0.0,6.0,91,0.00,,,-99.99,,2013-07-06 16:54:00,
2013-07-06 13:24:00,73.0,69.0,-100.00,SW,220,4.0,6.0,89,0.00,,,-99.99,,2013-07-06 17:24:00,
2013-07-06 13:44:00,73.0,69.0,-100.00,WSW,240,4.0,7.0,88,0.00,,,-99.99,,2013-07-06 17:44:00,
2013-07-06 13:53:00,73.0,69.0,-100.00,WSW,245,3.0,6.0,89,0.00,,,-99.99,,2013-07-06 17:53:00,
2013-07-06 14:02:00,72.0,69.0,-100.00,SW,235,2.0,7.0,90,0.00,,,-99.99,,2013-07-06 18:02:00,
2013-07-06 14:12:00,72.0,69.0,-100.00,WSW,250,2.0,6.0,91,0.00,,,-99.99,,2013-07-06 18:12:00,
2013-07-06 14:45:00,73.0,71.0,-100.00,South,185,1.0,4.0,92,0.00,,,-99.99,,2013-07-06 18:45:00,
2013-07-06 14:54:00,74.0,71.0,-100.00,SSW,210,1.0,4.0,90,0.00,,,-99.99,,2013-07-06 18:54:00,
2013-07-06 15:02:00,74.0,71.0,-100.00,SW,230,2.0,4.0,89,0.00,,,-99.99,,2013-07-06 19:02:00,
2013-07-06 15:13:00,73.0,70.0,-100.00,SW,220,2.0,5.0,89,0.00,,,-99.99,,2013-07-06 19:13:00,
2013-07-06 15:44:00,75.0,70.0,-100.00,SW,225,3.0,6.0,85,0.00,,,-99.99,,2013-07-06 19:44:00,
2013-07-06 15:54:00,75.0,70.0,-100.00,SW,225,3.0,6.0,85,0.00,,,-99.99,,2013-07-06 19:54:00,
2013-07-06 16:14:00,75.0,69.0,-100.00,SW,225,3.0,6.0,83,0.00,,,-99.99,,2013-07-06 20:14:00,
2013-07-06 16:24:00,74.0,69.0,-100.00,SW,215,4.0,12.0,83,0.00,,,-99.99,,2013-07-06 20:24:00,
2013-07-06 16:33:00,74.0,69.0,-100.00,WSW,240,3.0,7.0,85,0.00,,,-99.99,,2013-07-06 20:33:00,
2013-07-06 16:54:00,73.0,69.0,-100.00,SW,225,4.0,9.0,85,0.00,,,-99.99,,2013-07-06 20:54:00,
2013-07-06 17:01:00,73.0,68.0,-100.00,SW,225,2.0,7.0,84,0.00,,,-99.99,,2013-07-06 21:01:00,
2013-07-06 17:14:00,74.0,69.0,-100.00,SW,230,3.0,8.0,84,0.00,,,-99.99,,2013-07-06 21:14:00,
2013-07-06 17:22:00,74.0,69.0,-100.00,WSW,245,2.0,7.0,84,0.00,,,-99.99,,2013-07-06 21:22:00,
2013-07-06 17:34:00,73.0,68.0,-100.00,SW,230,4.0,8.0,84,0.00,,,-99.99,,2013-07-06 21:34:00,
2013-07-06 17:45:00,73.0,68.0,-100.00,WSW,240,4.0,10.0,82,0.00,,,-99.99,,2013-07-06 21:45:00,
2013-07-06 17:55:00,74.0,68.0,-100.00,SW,235,2.0,8.0,82,0.00,,,-99.99,,2013-07-06 21:55:00,
2013-07-06 18:15:00,74.0,68.0,-100.00,SW,215,1.0,6.0,81,0.00,,,-99.99,,2013-07-06 22:15:00,
2013-07-06 18:33:00,73.0,68.0,-100.00,SW,235,3.0,7.0,82,0.00,,,-99.99,,2013-07-06 22:33:00,
2013-07-06 18:45:00,73.0,67.0,-100.00,SW,235,4.0,8.0,81,0.00,,,-99.99,,2013-07-06 22:45:00,
2013-07-06 19:09:00,73.0,67.0,-100.00,SW,235,3.0,7.0,81,0.00,,,-99.99,,2013-07-06 23:09:00,
2013-07-06 19:23:00,73.0,67.0,-100.00,SW,225,2.0,4.0,82,0.00,,,-99.99,,2013-07-06 23:23:00,
2013-07-06 19:33:00,73.0,67.0,-100.00,SW,225,2.0,4.0,82,0.00,,,-99.99,,2013-07-06 23:33:00,
2013-07-06 19:46:00,73.0,67.0,-100.00,SW,225,2.0,4.0,83,0.00,,,-99.99,,2013-07-06 23:46:00,
2013-07-06 20:24:00,72.0,67.0,-100.00,NNE,25,1.0,6.0,84,0.00,,,-99.99,,2013-07-07 00:24:00,
2013-07-06 21:43:00,70.0,67.0,-100.00,SW,225,0.0,2.0,88,0.00,,,-99.99,,2013-07-07 01:43:00,
2013-07-06 22:00:00,70.0,67.0,-100.00,South,170,0.0,3.0,89,0.00,,,-99.99,,2013-07-07 02:00:00,
2013-07-06 22:21:00,69.0,66.0,-100.00,SW,220,2.0,4.0,90,0.00,,,-99.99,,2013-07-07 02:21:00,
2013-07-06 22:49:00,69.0,67.0,-100.00,WSW,240,0.0,3.0,91,0.00,,,-99.99,,2013-07-07 02:49:00,
2013-07-06 23:30:00,69.0,66.0,-100.00,SW,225,1.0,3.0,90,0.00,,,-99.99,,2013-07-07 03:30:00,
2013-07-06 23:38:00,69.0,66.0,-100.00,SW,215,1.0,3.0,90,0.00,,,-99.99,,2013-07-07 03:38:00,
2013-07-06 23:49:00,69.0,66.0,-100.00,SW,220,1.0,4.0,90,0.00,,,-99.99,,2013-07-07 03:49:00,